PROFILE

 METAR AND TAF INFORMATION
ADDS - METARS form results

(0853 UTC 19 August 2019)
http://aviationweather.gov/metar/data/
 
KEGE 190756Z AUTO 00000KT 10SM CLR 12/M01 A3024 RMK AO2 SLP171 T01221011
KEGE 190520Z 1906/2006 12005KT P6SM FEW250 FM191700 24007KT P6SM FEW150 FEW250 FM192000 24012G20KT P6SM FEW120 FEW250 FM200200 18006KT P6SM FEW250 

 AIRPORT MAP

 RUNWAY INFORMATION
Runway 07 Runway length 9000 ft Runway width 150 ft
Runway elevation 6461 ft Runway displaced threshold 0 ft Runway heading 82
Runway 25 Runway length 9000 ft Runway width 150 ft
Runway elevation 6547 ft Runway displaced threshold 1000 ft Runway heading 262
Runway 08 Runway length 5013 ft Runway width 60 ft
Runway elevation 0 ft Runway displaced threshold 0 ft Runway heading 90
Runway 26 Runway length 5013 ft Runway width 60 ft
Runway elevation 0 ft Runway displaced threshold 0 ft Runway heading 270

 AIRPORT FREQUENCIES
Type ATIS Name ATIS Frequency 135.575 MHZ
Type AWOS Name AWOS 3 Frequency 135.575 MHZ
Type CNTR Name DENVER CNT Frequency 128.65 MHZ
Type CTAF Name CTAF Frequency 119.8 MHZ
Type GCCD Name GND/CLNC D Frequency 121.8 MHZ
Type MISC Name EAGLES NES Frequency 41.75 MHZ
Type RDO Name DENVER RDO Frequency 122.2 MHZ
Type TWR Name TWR Frequency 119.8 MHZ

 AIRPORT NEAR NAVIGATION AIDS
Type VOR-DME Name Snow Frequency 109200 KHZ